STARLINK-31689 (59567 NORAD) Tracking and Keplerian Element Data

This shows tracking and keplerian element data for the satellite.

Feedback or suggestion? Click here.




ElementValue
Catalog59567
NameSTARLINK-31689
Epoch Orbit829
Epoch Day160.06124229
Epoch Year2024
RAAN54.7183
Inclination42.9993
Eccentricity0.0001152
Argument of Perigee287.1962
Mean Anonmoly72.8769
Mean Motion15.40703719
Decay Rate3.657E-05
L11 59567U 24076D 24160.06124229 .00003657 00000+0 94752-4 0 9991
L22 59567 42.9993 54.7183 0001152 287.1962 72.8769 15.40703719 8297



Live tracking and technical data element details for STARLINK-31689 (NORAD 59567). STARLINK-31689 can be tracked NOW for your location showing map with azimuth and elevation plus other details from your city location.







IsCatalogInMostPopularTable: catalog: 59567, numindb: 12
Update: records affected: 1



GetName: 59567 STARLINK-31689

Hit Count: updated at: Fri, 14 Jun 2024 18:52:25 GMT